カタログに戻る

COSMOS 2251 DEB

運用中LEO
NORAD 37499·DEBRIS·🇷🇺 Russia

打ち上げ Jun 16, 1993 から Plesetsk Cosmodrome

Loading…

次のパス (今後24時間)

TLE

最新Source: Space-Track

元期: Sep 13, 2026, 18:53 UTC

1 37499U 93036BMC 26256.78734906  .00000213  00000-0  84231-4 0  9996
2 37499  74.0384 178.5670 0028256 192.4331 167.6127 14.34546084890938

AllMySatでCOSMOS 2251 DEBをリアルタイム追跡

Download on the App Store